Terug naar catalogus

METEOR 2-8 DEB

ActiefPO
NORAD 36346·DEBRIS·🇷🇺 Russia

Gelanceerd Mar 25, 1982 vanaf Plesetsk Cosmodrome

Loading…

Volgende Passages (komende 24 uur)

TLE

VerouderdSource: Space-Track

Epoch: Aug 30, 2026, 09:03 UTC

1 36346U 82025AG  26242.37754788  .00003523  00000-0  12085-2 0  9995
2 36346  82.5337 114.4369 0005063  83.9582 276.2184 14.35947500332421

Volg METEOR 2-8 DEB in realtime met AllMySat

Download on the App Store